Flag for Germany Weather past 2 weeks in Bochum, North Rhine-Westphalia, Germany

Now
45 °F

Broken clouds.


Feels Like: 37 °F
Forecast: 43 / 54 °F
Wind: 17 mph from West

Location: Dortmund / Wickede

Current Time: Oct 22, 2014 at 10:20:41 AM

Latest Report: Oct 22, 2014 at 9:50 AM


Visibility: N/A

Pressure: 29.95 "Hg

Humidity: 81%

Dew point: 39 °F

Location of BochumLocation

Historic Weather in Bochum — Graph

°F

Bochum temperature yesterday

Maximum temperature yesterday: 55 °F (at 11:20 AM)
Minimum temperature yesterday: 46 °F (at 9:20 PM)
Average temperature yesterday: 52 °F

Past Weeks' High & Low Weather Summary

 TemperatureHumidityPressure
High73 °F (Oct 19, 2:20 PM)94% (Oct 11, 7:50 AM)30.12 "Hg (Oct 11, 7:50 AM)
Low45 °F (Oct 22, 5:20 AM)49% (Oct 10, 2:50 PM)29.47 "Hg (Oct 21, 4:20 PM)
Average58 °F75%29.82 "Hg
* Reported Oct 7 9:20 AM — Oct 22 9:20 AM, Bochum, Weather by CustomWeather, © 2014

Note: Actual official high and low records may vary slightly from our data, if they occured in-between our weather recording intervals... More about our weather records

Advertising

Bochum weather history for previous 24 hours

 ConditionsComfort  
Time TempWeatherWind HumidityBarometerVisibility
9:20 AM
Oct 22
45 °FLight rain. Broken clouds.17 mph81%29.95 "HgN/A
8:50 AM45 °FPassing clouds.15 mph81%29.92 "HgN/A
8:20 AM45 °FLight rain. Partly cloudy.17 mph81%29.92 "HgN/A
7:50 AM45 °FLight rain. Passing clouds.17 mph81%29.89 "HgN/A
7:20 AM45 °FLight rain. Passing clouds.20 mph81%29.89 "HgN/A
6:50 AM45 °FPassing clouds.17 mph81%29.89 "HgN/A
6:20 AM45 °FPassing clouds.17 mph81%29.86 "HgN/A
5:50 AM45 °FLight rain. Passing clouds.18 mph81%29.86 "HgN/A
5:20 AM45 °FLight rain. Clear.18 mph81%29.83 "HgN/A
10:50 PM
Oct 21
46 °FPassing clouds.17 mph76%29.71 "HgN/A
10:20 PM46 °FPassing clouds.17 mph76%29.68 "HgN/A
9:50 PM46 °FSprinkles. Passing clouds.20 mph76%29.65 "HgN/A
9:20 PM46 °FSprinkles. Passing clouds.14 mph82%29.65 "HgN/A
8:50 PM48 °FSprinkles. Passing clouds.20 mph71%29.62 "HgN/A
8:20 PM48 °FSprinkles. Passing clouds.18 mph76%29.62 "HgN/A
7:50 PM48 °FPassing clouds.16 mph82%29.59 "HgN/A
7:20 PM50 °FSprinkles. Partly sunny.18 mph76%29.56 "HgN/A
6:50 PM48 °FSprinkles. Scattered clouds.17 mph87%29.56 "Hg5 mi
6:20 PM50 °FScattered showers. Broken clouds.17 mph82%29.53 "Hg5 mi
5:50 PM52 °FScattered showers. Partly sunny.18 mph82%29.53 "HgN/A
5:20 PM52 °FDrizzle. Broken clouds.24 mph82%29.47 "Hg5 mi
4:50 PM54 °FDrizzle. Broken clouds.16 mph82%29.47 "Hg4 mi
4:20 PM54 °FScattered showers. Broken clouds.17 mph82%29.47 "Hg4 mi
3:50 PM54 °FScattered showers. Partly sunny.18 mph82%29.50 "Hg5 mi
3:20 PM54 °FDrizzle. Partly sunny.22 mph82%29.53 "Hg4 mi
2:50 PM52 °FPartly sunny.18 mph88%29.53 "HgN/A
2:20 PM54 °FSprinkles. Partly sunny.22 mph77%29.56 "Hg6 mi
1:50 PM54 °FSprinkles. Scattered clouds.20 mph77%29.59 "HgN/A
1:20 PM54 °FSprinkles. Partly sunny.20 mph77%29.62 "HgN/A
12:50 PM55 °FPartly sunny.20 mph72%29.65 "HgN/A
12:20 PM55 °FScattered clouds.21 mph72%29.65 "HgN/A
11:50 AM54 °FPartly sunny.20 mph77%29.68 "HgN/A
11:20 AM55 °FScattered clouds.20 mph67%29.68 "HgN/A
10:50 AM54 °FSunny.16 mph77%29.71 "Hg10 mi
10:20 AM54 °FPartly sunny.16 mph77%29.74 "HgN/A
Weather by CustomWeather, © 2014

See weather overviewHow to use our weather pages